Tracking 22881 objects as of 19-Apr-2021
HD Live streaming from Space Station
objects crossing your sky now

STARLINK-1439

Track STARLINK-1439 now!
10-day predictions
STARLINK-1439 is classified as:


NORAD ID: 45716
Int'l Code: 2020-035BM
Perigee: 405.8 km
Apogee: 407.6 km
Inclination: 53.0 °
Period: 92.6 minutes
Semi major axis: 6777 km
RCS: Unknown
Launch date: June 4, 2020
Source: United States (US)
Launch site: AIR FORCE EASTERN TEST RANGE (AFETR)
aabbcc
Your satellite tracking list
Your tracking list is empty




NASA's NSSDC Master Catalog

Two Line Element Set (TLE):
1 45716U 20035BM  21108.57408312 -.00007323  00000-0 -96947-4 0  9991
2 45716  52.9984  56.8538 0001308  75.6001 284.5154 15.55904139 51027
Source of the keplerian elements: AFSPC